{"data":{"norad_id":69028,"intl_designator":"2026-101D","name":"STARLINK-37634","alt_names":[],"object_type":"PAYLOAD","status":"ACTIVE","operator":null,"country":"US","launch_date":"2026-05-06","launch_site_code":"AFWTR","launch_vehicle":null,"mission":null,"orbit_class":"UNKNOWN","rcs_meters":null,"size_class":null,"mass_kg":null,"dimensions":null,"purposes":["comms"],"wikipedia_slug":null,"has_3d_model":false,"image_url":null,"decayed_at":null,"tle_current":{"epoch":"2026-09-19T09:32:58.004448Z","epoch_age_seconds":114537,"freshness":"FRESH","line1":"1 69028U 26101D   26262.39789357  .00007845  00000+0  24510-3 0  9992","line2":"2 69028  97.2849 115.9557 0001571  95.9805 264.1617 15.33442089 21019","mean_motion":15.33442089,"eccentricity":0.0001571,"inclination_deg":97.2849,"raan_deg":115.9557,"arg_perigee_deg":95.9805,"mean_anomaly_deg":264.1617,"bstar":0.0002451,"rev_number":2101,"period_min":93.906382923079,"perigee_km":464.4766920637,"apogee_km":466.62697909584,"semimajor_km":6843.6888355798,"source":"CELESTRAK","updated_at":"2026-09-20T09:00:44.058457Z"}}}